SCP
1 1 1 1 1 1 1 1 0 0 0 0 0 0 0 0 0 0 0 0 0 0 0 0 0 0 0 0 1 1 1 1 1 1 1 1 1 1 1 1 1 1 1
2 2 2 2 1 1 1 1 1 1 1 1 0 0 0 0 0 0 0 0 0 0 0 0 0 0 0 0 1 1 1 1 1 1 1 1 1 1 1 1 1 1 1
3 3 2 2 2 2 2 2 1 1 1 1 1 1 0 0 0 0 0 0 0 0 0 0 0 0 0 0 0 1 1 1 1 1 1 1 1 1 1 1 1 1 1
3 3 3 2 2 2 2 2 2 1 1 1 1 1 0 0 0 0 0 0 0 0 0 0 0 0 0 0 0 0 0 0 1 1 1 1 1 1 1 1 1 1 1
3 3 3 2 2 2 2 2 1 1 1 1 0 0 0 0 0 0 0 0 0 0 0 0 0 0 0 0 0 0 0 0 0 0 0 0 0 0 0 0 1 1 1
2 2 2 2 2 2 2 1 1 1 0 0 0 0 0 0 0 0 0 0 0 0 0 0 0 0 0 0 0 0 0 0 0 0 0 0 0 0 0 0 0 0 0
2 2 2 2 2 1 1 1 0 0 0 0 0 0 0 0 0 0 0 0 0 0 0 0 0 0 0 0 0 0 0 0 0 0 0 0 0 0 0 0 0 0 0
1 1 1 1 1 1 0 0 0 0 0 0 0 0 0 0 0 0 0 0 0 0 0 0 0 0 0 0 0 0 0 0 0 0 0 0 0 0 0 0 0 0 0
1 1 1 1 0 0 0 0 0 0 0 0 0 0 0 0 0 0 0 0 0 0 0 0 0 0 0 0 0 0 0 0 0 0 0 0 0 0 0 0 0 0 0
0 0 0 0 0 0 0 0 0 0 0 0 0 0 0 0 0 0 0 0 0 0 0 0 0 0 0 0 0 0 0 0 0 0 0 0 0 0 0 0 0 0 0
0 0 0 0 0 0 0 0 0 0 0 0 0 0 0 0 0 0 0 0 0 0 0 0 0 0 0 0 0 0 0 0 0 0 0 0 0 0 0 0 0 0 0
0 0 0 0 0 0 0 0 0 0 0 0 0 0 0 0 0 0 0 0 0 0 0 0 0 0 0 0 0 0 0 0 0 0 0 0 0 0 0 0 0 0 0
0 0 0 0 0 0 0 0 0 0 0 0 0 0 0 0 0 0 0 0 0 0 0 0 0 0 0 0 0 0 0 0 0 0 0 0 0 0 0 0 0 0 0
0 0 0 0 0 0 0 0 0 0 0 0 0 0 0 0 0 0 0 0 0 0 0 0 0 0 0 0 0 0 0 0 0 0 0 0 0 0 0 0 0 0 0
0 0 0 0 0 0 0 0 0 0 0 0 0 0 0 0 0 0 0 0 0 0 0 0 0 0 0 0 0 0 0 0 0 0 0 0 0 0 0 0 0 0 0
0 0 0 0 0 0 0 0 0 0 0 0 0 0 0 0 0 0 0 0 0 0 0 0 0 0 0 0 0 0 0 0 0 0 0 0 0 0 0 0 0 0 0
0 0 0 0 0 0 0 0 0 0 0 0 0 0 0 0 0 0 0 0 0 0 0 0 0 0 0 0 0 0 0 0 0 0 0 0 0 0 0 0 0 0 0
0 0 0 0 0 0 0 0 0 0 0 0 0 0 0 0 0 0 0 0 0 0 0 0 0 0 0 0 0 0 0 0 0 0 0 0 0 0 0 0 0 0 0
0 0 0 0 0 0 0 0 0 0 0 0 0 0 0 0 0 0 0 0 0 0 0 0 0 0 0 0 0 0 0 0 0 0 0 0 0 0 0 0 0 0 0
0 0 0 0 0 0 0 0 0 0 0 0 0 0 0 0 0 0 0 0 0 0 0 0 0 0 0 0 0 0 0 0 0 0 0 0 0 0 0 0 0 0 0
0 0 0 0 0 0 0 0 0 0 0 0 0 0 0 0 0 0 0 0 0 0 0 0 0 0 0 0 0 0 0 0 0 0 0 0 0 0 0 0 0 0 0
0 0 0 0 0 0 0 0 0 0 0 0 0 0 0 0 0 0 0 0 0 0 0 0 0 0 0 0 0 0 0 0 0 0 0 0 0 0 0 0 0 0 0
0 0 0 0 0 0 0 0 0 0 0 0 0 0 0 0 0 0 0 0 0 0 0 0 0 0 0 0 0 0 0 0 0 0 0 0 0 0 0 0 0 0 0
0 0 0 0 0 0 0 0 0 0 0 0 0 0 0 0 0 0 0 0 0 0 0 0 0 0 0 0 0 0 0 0 0 0 0 0 0 0 0 0 0 0 0
0 0 0 0 0 0 0 0 0 0 0 0 0 0 0 0 0 0 0 0 0 0 0 0 0 0 0 0 0 0 0 0 0 0 0 0 0 0 0 0 0 0 0
0 0 0 0 0 0 0 0 0 0 0 0 0 0 0 0 0 0 0 0 0 0 0 0 0 0 0 0 0 0 0 0 0 0 0 0 0 0 0 0 0 0 0
Wind_Speed
2 3 2 2 2 3 4 3 3 1 1 1 2 2 4 5 5 6 5 7 7 5 3 1 0 2 3 4 5 6 7 8 8 8 8 8 8 8 8 8 8 8 8
4 3 3 2 0 1 1 1 1 2 2 1 3 5 6 6 7 6 4 5 7 6 5 4 3 3 4 4 4 5 5 6 7 8 8 9 9 9 9 9 9 9 9
5 4 3 2 1 1 1 1 2 2 2 3 4 5 5 6 6 6 4 2 4 6 6 5 5 5 5 5 5 5 5 4 4 5 5 6 6 7 8 8 9 9 9
7 5 4 3 2 2 2 2 2 2 3 3 4 4 4 4 4 4 3 4 2 3 4 5 4 4 4 4 5 5 5 6 5 5 5 5 5 5 5 6 7 8 9
5 4 3 3 3 2 2 3 3 3 3 3 3 3 3 3 2 3 2 3 1 1 2 5 4 2 2 2 3 3 4 5 6 6 6 7 7 7 6 6 7 7 7
4 4 3 3 3 3 3 4 5 4 3 2 2 2 1 0 1 1 2 2 1 1 1 1 3 4 4 3 2 2 3 3 5 6 7 8 8 9 9 9 9 9 9
4 3 3 3 3 3 4 5 4 4 3 1 1 1 2 3 3 2 2 1 2 2 1 2 2 1 3 7 6 5 4 3 4 6 8 9 10 11 11 12 12 12 11
4 3 4 4 4 4 4 4 3 2 2 1 1 0 2 2 1 3 2 2 3 2 2 4 2 2 2 2 5 9 8 5 5 6 8 10 11 13 14 14 15 15 14
6 5 5 4 4 4 3 3 2 3 2 1 1 1 0 1 3 1 2 2 2 2 2 3 4 4 3 3 2 6 9 8 8 8 9 11 12 14 15 17 17 17 17
7 7 6 6 5 4 4 3 3 2 2 2 1 1 1 1 1 3 2 3 4 4 4 5 5 4 3 3 4 6 7 9 7 7 9 12 14 15 17 19 20 20 20
8 8 8 7 6 5 6 6 5 4 3 2 1 1 1 1 2 2 4 4 3 3 4 5 4 3 4 4 4 2 3 4 3 5 9 13 16 18 20 21 21 22 22
7 9 8 7 7 6 6 5 4 5 3 3 3 2 1 1 1 2 3 4 4 4 4 3 3 4 4 3 3 3 4 3 3 6 11 15 18 20 21 22 22 23 23
6 7 7 7 6 5 5 4 4 4 3 3 3 2 2 2 2 3 4 4 5 5 5 4 4 3 3 2 2 4 2 3 5 8 12 16 19 21 22 22 23 23 23
7 7 6 6 5 5 4 3 3 2 2 2 2 1 2 2 3 3 3 4 6 5 5 6 4 4 3 3 3 4 5 8 8 9 11 15 19 21 23 24 24 24 24
7 7 6 5 5 4 3 2 2 2 2 2 3 3 3 3 3 3 4 4 5 7 6 5 4 4 4 4 5 5 5 10 13 14 15 17 20 22 23 24 24 25 25
6 6 6 5 4 4 3 3 2 3 2 2 2 2 2 3 4 4 4 4 5 6 7 5 5 5 6 8 11 8 8 14 15 16 18 18 18 19 22 23 24 24 25
6 6 5 4 4 4 4 3 3 2 3 3 4 5 5 5 4 4 5 5 5 6 8 7 6 6 8 8 8 7 8 8 8 15 16 15 16 18 20 22 23 24 24
5 5 4 4 3 4 4 4 5 5 5 5 5 5 5 5 5 5 4 6 5 6 7 9 7 7 8 9 8 8 9 10 7 13 16 16 17 18 19 20 21 22 22
5 4 3 4 4 4 5 6 7 6 5 5 5 5 5 5 5 4 5 5 5 6 6 8 9 7 7 8 8 9 9 7 10 12 14 14 16 17 17 18 20 20 20
4 4 4 5 5 8 10 10 9 8 7 6 5 5 5 5 5 5 5 5 6 6 7 7 8 8 7 8 6 6 7 6 8 10 12 13 14 16 17 17 18 19 19
5 5 5 5 6 8 9 9 9 9 9 8 6 5 6 8 8 5 6 5 6 7 8 8 9 9 9 7 7 6 8 7 8 7 6 8 8 8 9 11 13 15 16
5 5 5 6 7 7 8 9 8 8 9 9 7 6 7 7 6 6 8 10 10 10 10 9 9 10 11 9 8 7 7 8 6 4 6 9 8 8 7 6 9 11 12
5 4 5 5 5 6 5 5 8 8 9 7 6 6 7 8 6 5 8 12 12 14 13 10 10 11 10 9 9 9 8 9 9 8 7 9 7 7 7 8 11 11 11
3 2 2 3 2 4 2 3 9 9 8 6 6 6 6 5 4 6 9 11 10 10 11 9 8 9 9 8 8 8 9 9 9 7 6 6 6 6 8 6 9 10 11
1 1 1 1 1 3 3 2 7 8 6 7 7 7 6 5 4 7 9 11 11 10 11 12 12 12 14 15 11 6 6 7 7 6 3 3 4 6 7 6 5 8 10
2 2 1 1 1 1 5 2 5 7 7 7 7 7 4 3 7 9 9 10 12 11 11 13 12 11 9 8 8 5 5 6 6 4 2 3 3 4 5 4 5 6 6
Wind_Direction
169 135 141 148 198 180 178 213 241 166 84 305 304 9 22 25 53 87 105 104 103 101 102 104 290 280 267 261 258 253 245 242 240 237 234 232 232 233 232 232 231 229 229
136 138 133 124 31 33 98 164 283 103 106 14 23 31 31 29 39 46 88 102 95 89 76 58 30 350 323 305 297 288 276 264 257 252 246 241 239 237 236 235 233 231 228
142 138 131 146 175 147 102 80 34 53 78 65 44 35 36 31 33 29 20 92 111 91 80 68 53 32 10 352 341 338 329 318 306 287 277 268 261 255 251 249 245 240 235
149 146 148 149 149 113 91 95 56 70 60 58 58 41 39 34 28 14 4 11 58 97 106 100 83 65 40 17 3 356 353 354 354 346 330 313 307 304 296 284 270 258 249
140 135 130 133 136 121 106 109 75 70 69 53 61 59 36 27 9 348 0 352 360 19 120 142 139 128 95 44 16 359 352 355 356 353 347 335 327 326 325 315 305 294 276
117 120 127 136 129 120 111 103 101 80 73 58 35 31 337 316 285 286 301 311 310 279 279 156 179 187 201 222 247 299 317 334 345 345 339 336 339 337 331 324 317 307 298
115 122 124 120 121 117 120 119 112 105 91 62 58 304 267 235 229 219 228 273 288 283 293 280 258 243 188 216 225 241 255 280 309 320 323 324 326 325 320 317 312 307 302
86 93 97 107 109 112 117 124 123 120 102 99 119 32 310 292 247 236 205 209 244 262 273 282 280 246 242 227 210 220 236 248 278 298 308 313 316 317 314 309 302 299 298
78 80 90 96 105 115 125 128 133 140 139 121 78 132 154 319 349 295 242 246 240 237 265 284 281 267 257 257 237 219 221 224 242 266 287 296 302 305 304 301 298 295 292
74 76 78 80 82 86 92 86 66 64 117 123 107 76 100 98 358 328 309 271 249 242 242 256 267 280 279 268 264 262 226 213 233 267 286 293 296 298 298 296 293 290 288
71 75 77 81 83 81 80 76 67 57 60 84 93 107 150 185 204 242 290 307 305 270 250 242 243 246 250 251 251 255 164 166 214 270 287 292 294 296 296 293 291 288 286
81 80 82 83 83 84 83 83 78 72 64 63 52 44 28 352 314 279 286 300 299 301 307 301 277 257 249 250 281 93 122 163 232 274 287 292 294 295 293 291 289 287 285
88 83 85 85 85 85 86 82 77 71 60 53 32 18 5 338 320 307 301 304 306 304 302 293 285 300 329 14 58 60 310 270 258 269 285 292 293 291 289 287 285 284 284
94 96 95 93 92 92 90 83 78 75 66 36 350 355 321 310 322 318 310 312 307 301 298 301 326 339 351 4 35 350 325 321 305 289 281 283 285 284 283 282 282 281 280
110 106 102 99 97 90 85 86 87 61 47 3 350 3 359 336 317 327 328 317 302 301 300 311 319 334 350 350 351 330 315 306 302 295 282 274 275 277 277 277 277 277 276
100 104 100 95 90 81 65 37 57 53 12 4 355 348 335 329 350 328 318 320 311 302 301 311 318 337 348 329 319 320 302 296 288 282 278 273 270 271 274 275 275 274 273
92 92 95 93 90 78 56 34 18 25 9 5 350 357 357 344 334 338 327 315 316 324 315 313 315 320 324 313 303 293 291 283 280 281 283 279 272 268 268 270 271 270 270
88 88 85 78 71 71 50 25 10 18 8 5 360 351 342 336 343 327 325 325 320 314 306 308 310 306 302 298 290 291 297 296 297 294 286 282 277 272 268 265 263 263 262
78 74 71 67 52 52 50 31 19 8 2 350 342 332 329 323 313 321 324 313 309 312 313 303 300 297 294 292 295 297 298 297 296 295 295 292 290 287 280 270 264 259 255
72 61 54 52 48 49 44 29 12 351 344 338 330 323 316 313 312 325 314 306 315 318 307 300 299 298 295 293 298 301 301 297 297 300 299 298 297 298 291 281 271 264 257
55 51 49 51 56 64 43 29 360 345 338 326 320 318 317 314 306 291 292 309 309 302 302 299 299 300 299 303 304 301 299 301 291 288 297 299 300 294 292 289 283 273 264
48 42 39 46 49 64 62 35 360 336 321 313 317 325 316 310 335 305 290 293 287 288 293 294 294 294 296 299 300 301 301 302 297 294 301 300 297 294 293 289 290 284 272
51 45 43 53 76 93 70 17 346 321 305 302 314 317 316 323 340 344 325 310 299 293 284 282 286 289 295 298 301 303 301 300 296 297 296 295 296 295 297 304 307 297 285
38 38 54 60 92 123 127 343 333 317 307 315 321 312 312 318 19 352 323 310 302 301 297 294 283 288 295 297 296 294 293 291 287 285 285 288 296 304 307 300 298 295 289
17 338 71 55 75 154 189 310 336 320 327 336 326 319 319 324 19 337 319 310 308 307 307 310 303 294 290 288 284 284 287 290 297 299 300 292 297 306 300 296 303 305 299
323 325 10 352 321 135 167 225 325 328 335 331 319 314 326 334 327 319 316 310 305 308 316 315 312 307 300 294 288 268 277 292 301 299 323 308 288 306 300 291 306 309 304